Location: Bow
(51.5261°N, 0.0167°W)
Time: 22:08:00
(UTC+00:00)

X-37B - Visible Passes

Search period start: 20 June 2021 00:00
Search period end: 30 June 2021 00:00
Orbit: 386 x 389 km, 45.0° (Epoch: 10 June)

Date Brightness Start Highest point End Pass type
(mag) Time Alt. Az. Time Alt. Az. Time Alt. Az.
20 Jun 2.9 00:28:46 13° ESE 00:28:46 13° ESE 00:29:14 10° ESE visible
20 Jun 1.8 02:01:04 15° SW 02:02:46 23° S 02:05:22 10° SE visible
21 Jun 2.1 01:05:32 21° SSE 01:05:32 21° SSE 01:07:15 10° SE visible
21 Jun 2.3 02:38:37 10° WSW 02:40:36 16° SSW 02:42:36 10° SSE visible
22 Jun 2.1 01:43:04 19° S 01:43:04 19° S 01:44:52 10° SE visible
23 Jun 2.0 22:07:43 10° SSW 22:10:02 19° SSE 22:10:09 19° SSE visible
24 Jun 2.4 21:10:03 10° SSW 21:11:54 15° SSE 21:13:46 10° ESE visible
24 Jun 1.8 22:45:15 10° SW 22:47:29 24° S 22:47:29 24° S visible
25 Jun 1.9 21:47:09 10° SW 21:49:44 22° S 21:51:53 12° ESE visible
25 Jun 2.6 23:23:14 10° WSW 23:24:10 16° SW 23:24:10 16° SW visible
26 Jun 1.7 22:24:58 10° WSW 22:27:38 25° S 22:28:18 23° SSE visible
27 Jun 1.8 21:26:46 10° SW 21:29:26 25° S 21:32:07 10° ESE visible
27 Jun 2.4 23:03:09 10° WSW 23:04:33 17° SW 23:04:33 17° SW visible
28 Jun 1.9 22:04:45 10° WSW 22:07:21 23° S 22:08:29 19° SSE visible
29 Jun 1.9 21:06:29 10° WSW 21:09:10 25° S 21:11:51 10° SE visible
29 Jun 2.6 22:43:13 10° WSW 22:44:39 15° SSW 22:44:39 15° SSW visible
